WX7FGZ-6 Weather Reports


time (UTC)temp
C
wind
direction
speed
KPH
gust
KPH
rain 1hr
cm
rain 24hr
cm
rain mn
cm
humidity
%
barometer
mb
20260507080335 1 13 14.5 22.5 0.00 0.13 0.00 50 1023.8
20260507075835 1 22 9.7 17.7 0.00 0.13 0.00 50 1023.9
20260507075335 1 31 6.4 17.7 0.00 0.13 0.00 50 1024.0
20260507074941 1 24 9.7 14.5 0.00 0.13 0.00 50 1024.0
20260507074835 1 24 9.7 14.5 0.00 0.13 0.00 50 1024.0
20260507074334 1 22 8.0 12.9 0.00 0.13 0.00 50 1023.9
20260507073834 1 26 9.7 19.3 0.00 0.13 0.00 50 1023.9
20260507073334 1 3 12.9 20.9 0.00 0.13 0.00 48 1023.9
20260507072834 1 28 12.9 24.1 0.00 0.13 0.00 50 1023.8
20260507072334 1 19 16.1 24.1 0.00 0.13 0.00 52 1023.9
20260507071834 1 18 16.1 19.3 0.00 0.13 0.00 53 1023.8
20260507071334 1 20 11.3 16.1 0.00 0.13 0.00 53 1023.9
20260507070834 1 17 9.7 16.1 0.00 0.13 0.00 54 1024.0
20260507070005 1 32 9.7 14.5 0.00 0.13 0.13 54 1024.1
20260507065503 0 16 9.7 14.5 0.00 0.13 0.13 56 1024.1
20260507065003 0 24 8.0 11.3 0.00 0.13 0.13 56 1024.0
20260507064503 0 26 8.0 12.9 0.00 0.13 0.13 56 1024.0
20260507064003 1 27 8.0 12.9 0.00 0.13 0.13 55 1024.2
20260507063503 1 31 8.0 14.5 0.00 0.13 0.13 54 1023.6
20260507063002 1 26 9.7 14.5 0.00 0.13 0.13 53 1023.7
20260507062502 1 35 6.4 14.5 0.00 0.13 0.13 53 1023.7
20260507062134 1 34 8.0 14.5 0.00 0.13 0.13 52 1023.7
20260507062002 1 34 8.0 14.5 0.00 0.13 0.13 52 1023.7
20260507061546 1 26 8.0 14.5 0.00 0.13 0.13 52 1023.7
20260507061502 1 26 8.0 14.5 0.00 0.13 0.13 52 1023.7
20260507061002 1 39 6.4 16.1 0.00 0.13 0.13 52 1024.0
20260507060502 1 26 8.0 16.1 0.00 0.13 0.13 52 1024.0
20260507055619 1 9 12.9 20.9 0.00 0.13 0.13 53 1023.9
20260507055534 1 9 12.9 20.9 0.00 0.13 0.13 53 1023.9
20260507055034 1 16 14.5 20.9 0.00 0.13 0.13 52 1023.8
20260507054534 1 20 12.9 17.7 0.00 0.13 0.13 52 1023.8
20260507054033 1 27 9.7 17.7 0.00 0.13 0.13 52 1024.0
20260507053533 1 21 11.3 19.3 0.00 0.13 0.13 51 1024.0
20260507053033 1 19 12.9 19.3 0.00 0.13 0.13 51 1023.9
20260507051732 1 20 12.9 19.3 0.00 0.13 0.13 50 1024.0
20260507051232 1 25 11.3 19.3 0.00 0.13 0.13 50 1024.1
20260507050733 2 24 9.7 20.9 0.00 0.13 0.13 48 1024.1
20260507045732 2 21 12.9 22.5 0.00 0.13 0.13 47 1024.2
20260507045232 2 28 12.9 20.9 0.00 0.13 0.13 45 1023.4
20260507044332 2 23 11.3 17.7 0.00 0.13 0.13 43 1023.5
20260507043833 2 12 12.9 19.3 0.00 0.13 0.13 42 1023.6
20260507043333 2 13 9.7 19.3 0.00 0.13 0.13 42 1023.5
20260507041832 2 16 8.0 24.1 0.00 0.13 0.13 42 1023.8
20260507041332 2 8 16.1 24.1 0.00 0.13 0.13 41 1023.9
20260507040832 2 20 9.7 27.4 0.00 0.13 0.13 40 1023.9
20260507040332 2 28 11.3 27.4 0.00 0.13 0.13 40 1023.7
20260507035832 2 360 12.9 20.9 0.00 0.13 0.13 41 1023.8
20260507035332 2 43 9.7 19.3 0.00 0.13 0.13 40 1023.7
20260507034833 2 13 11.3 19.3 0.00 0.13 0.13 41 1023.6
20260507034332 2 29 4.8 16.1 0.00 0.13 0.13 42 1023.7
20260507033832 3 33 11.3 25.7 0.00 0.13 0.13 42 1023.8
20260507033332 3 16 11.3 25.7 0.00 0.13 0.13 44 1023.7
20260507032832 3 21 14.5 22.5 0.00 0.13 0.13 44 1023.7
20260507032332 3 19 11.3 24.1 0.00 0.13 0.13 43 1023.5
20260507031832 3 359 12.9 24.1 0.00 0.13 0.13 43 1023.5
20260507031333 2 20 9.7 24.1 0.00 0.13 0.13 44 1023.5
20260507030833 3 11 11.3 24.1 0.00 0.13 0.13 45 1023.4
20260507030243 3 26 14.5 20.9 0.00 0.13 0.13 45 1022.7
20260507025744 3 13 9.7 19.3 0.00 0.13 0.13 44 1022.6
20260507025244 3 6 12.9 19.3 0.00 0.13 0.13 45 1022.6
20260507024744 3 29 9.7 22.5 0.00 0.13 0.13 44 1022.6
20260507024244 3 34 11.3 22.5 0.00 0.13 0.13 46 1022.6
20260507023744 3 18 12.9 20.9 0.00 0.13 0.13 46 1022.6
20260507023244 3 11 11.3 20.9 0.00 0.13 0.13 45 1022.4
20260507022743 3 9 12.9 20.9 0.00 0.13 0.13 45 1022.6
20260507021743 3 12 9.7 24.1 0.00 0.13 0.13 43 1022.6
20260507021242 3 4 11.3 20.9 0.00 0.13 0.13 44 1022.6
20260507020743 3 9 12.9 19.3 0.00 0.13 0.13 42 1022.6
20260507020243 4 11 9.7 19.3 0.00 0.13 0.13 42 1022.8
20260507015743 4 18 8.0 19.3 0.00 0.13 0.13 42 1022.7
20260507015243 4 16 6.4 19.3 0.00 0.13 0.13 42 1022.7
20260507014743 4 354 9.7 19.3 0.00 0.13 0.13 40 1022.6
20260507014243 3 346 8.0 19.3 0.00 0.13 0.13 42 1022.6
20260507013531 3 13 11.3 20.9 0.00 0.13 0.13 43 1022.5
20260507013031 3 1 14.5 19.3 0.00 0.13 0.13 44 1022.6
20260507012233 3 4 12.9 19.3 0.00 0.13 0.13 47 1022.4
20260507011733 3 357 12.9 19.3 0.00 0.13 0.13 47 1022.6
20260507011233 4 14 8.0 17.7 0.00 0.13 0.13 50 1022.0
20260507010733 4 5 11.3 17.7 0.00 0.13 0.13 51 1022.1
20260507010233 4 2 11.3 22.5 0.00 0.13 0.13 51 1022.1
20260507005733 5 358 12.9 22.5 0.00 0.13 0.13 48 1022.2
20260507005233 5 345 9.7 20.9 0.00 0.13 0.13 47 1022.1
20260507004733 6 352 12.9 19.3 0.00 0.13 0.13 45 1022.2
20260507004233 6 354 8.0 20.9 0.00 0.13 0.13 45 1022.2
20260507003732 6 351 9.7 20.9 0.00 0.13 0.13 46 1022.2
20260507003233 6 10 12.9 27.4 0.00 0.13 0.13 46 1022.1
20260507002733 6 88 17.7 32.2 0.00 0.13 0.13 45 1022.2
20260507002233 6 11 17.7 32.2 0.00 0.13 0.13 45 1022.1
20260507001733 6 350 14.5 27.4 0.00 0.13 0.13 45 1022.2
20260507001233 6 75 17.7 25.7 0.00 0.13 0.13 45 1022.1
20260507000733 5 8 11.3 24.1 0.03 0.13 0.13 48 1022.1
20260507000234 5 347 8.0 22.5 0.03 0.13 0.13 46 1021.6
20260506235732 5 11 11.3 20.9 0.03 0.13 0.13 47 1021.5
20260506235233 5 324 6.4 16.1 0.03 0.13 0.13 48 1021.5
20260506234733 5 7 8.0 16.1 0.03 0.13 0.13 46 1021.7
20260506234233 5 4 6.4 14.5 0.03 0.13 0.13 47 1022.0
20260506233733 5 2 8.0 16.1 0.03 0.13 0.13 50 1021.9
20260506233233 6 296 4.8 20.9 0.03 0.13 0.13 45 1022.0
20260506232733 6 1 9.7 20.9 0.03 0.13 0.13 46 1022.0
20260506232233 5 345 4.8 25.7 0.03 0.13 0.13 46 1021.9
20260506231733 5 4 11.3 27.4 0.03 0.13 0.13 47 1022.0
20260506231233 6 357 14.5 27.4 0.03 0.13 0.13 44 1022.0
20260506230733 6 359 11.3 24.1 0.00 0.10 0.10 45 1022.1
20260506230233 6 347 11.3 24.1 0.00 0.10 0.10 44 1021.5
20260506225733 6 340 9.7 20.9 0.00 0.10 0.10 46 1021.4
20260506224831 5 1 11.3 22.5 0.00 0.10 0.10 47 1021.4
20260506224331 5 357 8.0 19.3 0.00 0.10 0.10 46 1021.5
20260506223832 6 349 9.7 20.9 0.00 0.10 0.10 45 1021.5
20260506223334 6 357 12.9 20.9 0.00 0.10 0.10 42 1021.7
20260506222832 6 346 8.0 24.1 0.00 0.10 0.10 48 1021.5
20260506222334 6 3 9.7 24.1 0.00 0.10 0.10 45 1021.7
20260506221831 6 14 16.1 24.1 0.00 0.10 0.10 42 1021.6
20260506221331 6 280 6.4 27.4 0.00 0.10 0.10 45 1021.8
20260506220831 6 6 12.9 27.4 0.00 0.10 0.10 42 1021.9
20260506220334 6 8 11.3 24.1 0.00 0.10 0.10 46 1021.9
20260506220243 6 351 8.0 22.5 0.00 0.10 0.10 46 1022.0
20260506215832 6 351 8.0 22.5 0.00 0.10 0.10 46 1022.0
20260506215332 6 332 4.8 22.5 0.00 0.10 0.10 46 1022.0
20260506215143 6 358 11.3 22.5 0.00 0.10 0.10 44 1022.0
20260506214736 6 358 11.3 22.5 0.00 0.10 0.10 44 1022.0
20260506214236 6 297 6.4 20.9 0.00 0.10 0.10 48 1022.1
20260506214028 5 351 6.4 20.9 0.00 0.10 0.10 49 1021.6
20260506213735 5 351 6.4 20.9 0.00 0.10 0.10 49 1021.6
20260506213235 5 24 8.0 22.5 0.00 0.10 0.10 50 1021.7
20260506212735 5 354 9.7 24.1 0.00 0.10 0.10 52 1021.6
20260506212236 5 1 12.9 25.7 0.00 0.10 0.10 49 1021.6
20260506211735 5 356 14.5 25.7 0.00 0.10 0.10 52 1021.8
20260506211235 5 353 8.0 19.3 0.00 0.10 0.10 50 1021.9
20260506210735 5 22 9.7 20.9 0.00 0.10 0.10 50 1022.0
20260506210235 5 121 12.9 20.9 0.00 0.10 0.10 48 1021.9
20260506205736 5 355 9.7 25.7 0.00 0.10 0.10 53 1021.9
20260506205236 4 325 9.7 25.7 0.00 0.10 0.10 53 1021.9
20260506205008 4 343 14.5 24.1 0.00 0.10 0.10 53 1022.0
20260506204735 4 343 14.5 24.1 0.00 0.10 0.10 53 1022.0
20260506204235 4 333 8.0 22.5 0.00 0.10 0.10 54 1021.9
20260506203735 4 287 8.0 27.4 0.00 0.10 0.10 58 1021.9
20260506203235 3 338 9.7 27.4 0.00 0.10 0.10 56 1021.9
20260506203123 3 357 11.3 22.5 0.00 0.10 0.10 57 1021.9
20260506202736 3 357 11.3 22.5 0.00 0.10 0.10 57 1021.9
20260506202236 3 288 6.4 22.5 0.03 0.10 0.10 60 1021.8
20260506201735 3 350 14.5 22.5 0.08 0.10 0.10 58 1021.9
20260506201235 3 341 8.0 24.1 0.10 0.10 0.10 60 1021.9
20260506200735 3 356 12.9 37.0 0.10 0.10 0.10 56 1021.9
20260506200236 3 342 16.1 37.0 0.10 0.10 0.10 56 1021.9
20260506195959 3 340 11.3 20.9 0.10 0.10 0.10 55 1021.8
20260506195736 3 340 11.3 20.9 0.10 0.10 0.10 55 1021.8
20260506195029 3 350 14.5 22.5 0.10 0.10 0.10 53 1021.6
20260506194531 3 344 12.9 22.5 0.10 0.10 0.10 54 1021.7
20260506194029 3 332 12.9 22.5 0.10 0.10 0.10 54 1021.6
20260506193834 3 342 8.0 17.7 0.10 0.10 0.10 58 1021.4
20260506193529 3 342 8.0 17.7 0.10 0.10 0.10 58 1021.4
20260506193029 3 326 11.3 19.3 0.10 0.10 0.10 57 1021.3
20260506192529 2 349 11.3 20.9 0.08 0.08 0.08 52 1021.2
20260506192029 3 349 11.3 20.9 0.05 0.05 0.05 55 1021.0
20260506191530 2 336 8.0 17.7 0.00 0.00 0.00 58 1020.2
20260506191029 2 342 4.8 14.5 0.00 0.00 0.00 68 1020.2
20260506190332 2 343 8.0 24.1 0.00 0.00 0.00 63 1020.2
20260506185832 2 339 11.3 19.3 0.00 0.00 0.00 63 1020.2
20260506185332 2 339 6.4 27.4 0.00 0.00 0.00 62 1020.2
20260506184832 2 345 16.1 27.4 0.00 0.00 0.00 58 1020.1
20260506184332 2 339 11.3 19.3 0.00 0.00 0.00 57 1020.1
20260506183831 2 343 9.7 19.3 0.00 0.00 0.00 59 1020.1
20260506183249 2 340 11.3 27.4 0.00 0.00 0.00 59 1020.1
20260506182749 1 337 16.1 27.4 0.00 0.00 0.00 64 1020.0
20260506182540 1 333 11.3 20.9 0.00 0.00 0.00 64 1020.2
20260506182249 1 333 11.3 20.9 0.00 0.00 0.00 64 1020.2
20260506181751 1 338 11.3 20.9 0.00 0.00 0.00 62 1020.1
20260506181249 1 336 8.0 24.1 0.00 0.00 0.00 66 1020.1
20260506180750 1 342 14.5 24.1 0.00 0.00 0.00 66 1020.0
20260506180250 1 347 9.7 24.1 0.00 0.00 0.00 66 1020.1
20260506175749 1 349 14.5 24.1 0.00 0.00 0.00 65 1020.2
20260506175249 1 344 8.0 20.9 0.00 0.00 0.00 71 1020.0
20260506174749 0 354 11.3 30.6 0.00 0.00 0.00 69 1019.7
20260506174249 0 347 14.5 30.6 0.00 0.00 0.00 72 1019.7
20260506174104 0 345 16.1 25.7 0.00 0.00 0.00 70 1019.5
20260506173749 0 345 16.1 25.7 0.00 0.00 0.00 70 1019.5
20260506173251 0 331 12.9 25.7 0.00 0.00 0.00 71 1019.5
20260506172749 0 351 16.1 29.0 0.00 0.00 0.00 72 1019.5
20260506172249 0 349 19.3 29.0 0.00 0.00 0.00 71 1019.4
20260506171749 0 334 16.1 32.2 0.00 0.00 0.00 73 1019.3
20260506171249 0 351 17.7 32.2 0.00 0.00 0.00 72 1018.6
20260506170749 0 345 14.5 29.0 0.00 0.00 0.00 73 1018.5
20260506170250 0 341 12.9 24.1 0.00 0.00 0.00 73 1018.8
20260506165750 0 359 14.5 24.1 0.00 0.00 0.00 74 1018.8
20260506165249 -1 351 14.5 24.1 0.00 0.00 0.00 74 1018.8
20260506164749 -1 359 14.5 25.7 0.00 0.00 0.00 73 1018.6
20260506164249 -1 353 14.5 25.7 0.00 0.00 0.00 73 1018.6
20260506163749 -1 354 11.3 24.1 0.00 0.00 0.00 74 1018.5
20260506163249 -1 354 16.1 24.1 0.00 0.00 0.00 74 1018.4
20260506161750 -1 344 17.7 29.0 0.00 0.00 0.00 73 1018.3
20260506161249 -1 357 12.9 27.4 0.00 0.00 0.00 73 1018.4
20260506160749 -1 352 16.1 25.7 0.00 0.00 0.00 73 1018.5
20260506155940 -1 347 16.1 35.4 0.00 0.00 0.00 73 1018.7
20260506155442 -2 358 16.1 30.6 0.00 0.00 0.00 74 1018.9
20260506154941 -2 1 20.9 30.6 0.00 0.00 0.00 73 1018.7
20260506154442 -2 348 16.1 29.0 0.00 0.00 0.00 74 1018.7
20260506153942 -2 360 17.7 29.0 0.00 0.00 0.00 75 1018.6
20260506153440 -2 351 20.9 29.0 0.00 0.00 0.00 74 1018.5
20260506152941 -2 353 17.7 30.6 0.00 0.00 0.00 75 1018.5
20260506152442 -2 356 24.1 30.6 0.00 0.00 0.00 74 1018.6
20260506151855 -2 15 19.3 30.6 0.00 0.00 0.00 74 1018.6
20260506151644 -2 5 24.1 30.6 0.00 0.00 0.00 74 1018.5
20260506151355 -2 5 24.1 30.6 0.00 0.00 0.00 74 1018.5
20260506151212 -2 3 16.1 24.1 0.00 0.00 0.00 75 1018.3
20260506150856 -2 3 16.1 24.1 0.00 0.00 0.00 75 1018.3
20260506150358 -2 356 16.1 25.7 0.00 0.00 0.00 76 1018.2
20260506145856 -2 7 14.5 32.2 0.00 0.00 0.00 76 1017.9
20260506145356 -2 342 12.9 32.2 0.00 0.00 0.00 76 1017.8
20260506144855 -2 1 16.1 32.2 0.00 0.00 0.00 77 1017.7
20260506144356 -2 17 20.9 30.6 0.00 0.00 0.00 78 1017.5
20260506143855 -2 358 20.9 32.2 0.00 0.00 0.00 78 1017.4
20260506143358 -2 7 20.9 32.2 0.00 0.00 0.00 79 1017.1
20260506142856 -2 3 19.3 25.7 0.00 0.00 0.00 81 1016.9
20260506142403 -3 12 20.9 29.0 0.00 0.00 0.00 81 1016.8
20260506142107 -3 12 20.9 29.0 0.00 0.00 0.00 81 1016.8
20260506141607 -3 16 17.7 25.7 0.00 0.00 0.00 80 1016.8
20260506141107 -3 16 19.3 29.0 0.00 0.00 0.00 80 1016.9
20260506140608 -2 20 20.9 32.2 0.00 0.00 0.00 80 1016.8
20260506140320 -3 12 20.9 33.8 0.00 0.00 0.00 80 1016.7
20260506140107 -3 12 20.9 33.8 0.00 0.00 0.00 80 1016.7
20260506135748 -3 14 24.1 37.0 0.00 0.00 0.00 80 1016.4
20260506135608 -3 14 24.1 37.0 0.00 0.00 0.00 80 1016.4
20260506135108 -3 1 22.5 37.0 0.00 0.00 0.00 81 1016.3
20260506134734 -3 6 24.1 33.8 0.00 0.00 0.00 80 1016.4
20260506134607 -3 6 24.1 33.8 0.00 0.00 0.00 80 1016.4
20260506134220 -3 1 20.9 33.8 0.00 0.00 0.00 80 1016.4
20260506134107 -3 1 20.9 33.8 0.00 0.00 0.00 80 1016.4
20260506133030 -3 7 24.1 32.2 0.00 0.00 0.00 79 1016.3
20260506132529 -3 22 25.7 32.2 0.00 0.00 0.00 79 1016.3
20260506132029 -3 8 20.9 27.4 0.00 0.00 0.00 79 1016.2
20260506131530 -3 7 19.3 30.6 0.00 0.00 0.00 78 1016.1
20260506131144 -3 7 20.9 30.6 0.00 0.00 0.00 77 1016.0
20260506131030 -3 7 20.9 30.6 0.00 0.00 0.00 77 1016.0
20260506130646 -3 11 22.5 30.6 0.00 0.00 0.00 78 1016.0
20260506130530 -3 11 22.5 30.6 0.00 0.00 0.00 78 1016.0
20260506130153 -3 11 22.5 32.2 0.00 0.00 0.00 77 1016.0
20260506130029 -3 11 22.5 32.2 0.00 0.00 0.00 77 1016.0
20260506125531 -3 21 25.7 32.2 0.00 0.00 0.00 77 1015.9
20260506125030 -4 29 24.1 30.6 0.00 0.00 0.00 79 1015.8
20260506124530 -4 7 16.1 29.0 0.00 0.00 0.00 80 1015.7
20260506124031 -4 354 19.3 30.6 0.00 0.00 0.00 80 1015.7
20260506123529 -4 13 19.3 30.6 0.00 0.00 0.00 80 1015.6
20260506123213 -4 7 19.3 29.0 0.00 0.00 0.00 80 1015.6
20260506123030 -4 7 19.3 29.0 0.00 0.00 0.00 80 1015.6
20260506122532 -4 1 19.3 29.0 0.00 0.00 0.00 81 1015.5
20260506122031 -4 3 17.7 27.4 0.00 0.00 0.00 81 1015.5
20260506121529 -4 4 19.3 27.4 0.00 0.00 0.00 81 1015.4
20260506121029 -4 3 17.7 25.7 0.00 0.00 0.00 81 1015.5
20260506120530 -4 8 17.7 22.5 0.00 0.00 0.00 82 1015.4
20260506120030 -4 360 16.1 22.5 0.00 0.00 0.00 82 1015.3
20260506115530 -4 8 16.1 22.5 0.00 0.00 0.00 83 1015.3
20260506115030 -4 2 16.1 24.1 0.00 0.00 0.00 83 1015.1
20260506114530 -4 7 16.1 24.1 0.00 0.00 0.00 84 1015.0
20260506114030 -5 8 14.5 20.9 0.00 0.00 0.00 84 1015.2
20260506113129 -5 4 16.1 27.4 0.00 0.00 0.00 85 1015.2
20260506112630 -5 7 19.3 25.7 0.00 0.00 0.00 85 1015.1
20260506112130 -5 6 14.5 20.9 0.00 0.00 0.00 84 1015.1
20260506111629 -5 3 12.9 19.3 0.00 0.00 0.00 84 1015.1
20260506111129 -4 10 12.9 19.3 0.00 0.00 0.00 83 1015.1
20260506110629 -4 9 12.9 19.3 0.00 0.00 0.00 83 1015.1
20260506105927 -4 7 16.1 19.3 0.00 0.00 0.00 84 1015.1
20260506105427 -4 9 14.5 20.9 0.00 0.00 0.00 83 1015.1
20260506104927 -4 10 14.5 20.9 0.00 0.00 0.00 83 1015.1
20260506104427 -4 1 14.5 20.9 0.00 0.00 0.00 83 1015.0
20260506103927 -4 6 12.9 24.1 0.00 0.00 0.00 82 1015.0
20260506103427 -3 13 14.5 24.1 0.00 0.00 0.00 83 1014.7
20260506102927 -4 13 14.5 22.5 0.00 0.00 0.00 83 1014.6
20260506102427 -4 13 12.9 19.3 0.00 0.00 0.00 84 1014.6
20260506101927 -4 9 12.9 17.7 0.00 0.00 0.00 84 1014.6
20260506101427 -4 17 12.9 17.7 0.00 0.00 0.00 84 1014.6
20260506100927 -5 13 12.9 16.1 0.00 0.00 0.00 85 1014.6
20260506100427 -5 19 11.3 14.5 0.00 0.00 0.00 84 1014.6
20260506095837 -4 11 9.7 16.1 0.00 0.00 0.00 83 1014.6
20260506095336 -4 13 11.3 19.3 0.00 0.00 0.00 84 1014.6
20260506094838 -4 12 11.3 19.3 0.00 0.00 0.00 84 1014.6
20260506094336 -4 21 12.9 17.7 0.00 0.00 0.00 85 1014.6
20260506093836 -4 23 12.9 17.7 0.00 0.00 0.00 85 1014.6
20260506093337 -4 21 14.5 17.7 0.00 0.00 0.00 86 1014.6
20260506092837 -5 19 12.9 16.1 0.00 0.00 0.00 86 1014.6
20260506091836 -4 6 12.9 19.3 0.00 0.00 0.00 86 1014.5
20260506091336 -4 18 14.5 17.7 0.00 0.00 0.00 85 1014.6
20260506090418 -4 12 14.5 20.9 0.00 0.00 0.00 85 1014.5
20260506090118 -4 15 14.5 20.9 0.00 0.00 0.00 86 1014.6
20260506085917 -4 15 14.5 20.9 0.00 0.00 0.00 86 1014.6
20260506085419 -4 5 11.3 20.9 0.00 0.00 0.00 86 1014.6
20260506084917 -4 19 14.5 22.5 0.00 0.00 0.00 86 1014.4
20260506084417 -4 22 16.1 22.5 0.00 0.00 0.00 87 1014.5
20260506083918 -5 27 14.5 19.3 0.00 0.00 0.00 87 1014.5
20260506083418 -5 12 11.3 19.3 0.00 0.00 0.00 88 1014.5
20260506082917 -5 21 14.5 19.3 0.00 0.00 0.00 88 1014.6
20260506082345 -5 12 11.3 19.3 0.00 0.00 0.00 89 1014.6
20260506081845 -5 18 14.5 19.3 0.00 0.00 0.00 90 1014.7
20260506081345 -5 18 11.3 14.5 0.00 0.00 0.00 89 1014.7
20260506080844 -5 13 9.7 12.9 0.00 0.00 0.00 89 1014.7